Starlink 3336

operational
NORAD ID: 50818 Int'l Des: 2022-001 Owner: SPXS Country: US Constellation: starlink
LEOCIRCULAR

About Starlink 3336

Description loading...

Live Position

Loading 3D Globe...

Upcoming Passes

Altitude History

Altitude vs Time

uPlot chart will show altitude changes over time

Two-Line Element Set

1 50818U 22001R 25302.54002205 .00001408 00000-0 10651-3 0 9996
2 50818 53.2171 37.8707 0001383 88.0494 272.0657 15.08840489210608
Epoch: Oct 29, 2025 • Age: 5 hours

Current Status

Altitude 545.1 km
Velocity 7.60 km/s
Sub-Earth Point 51.96°N, 165.94°W
Launch Date Jan 6, 2022
Age 3.8 years
Type internet

Technical Details

Classification Payload
Mass 297.00 kg
Dry Mass 275.00 kg
Total Mass 297.00 kg
Length 0.20 m
Diameter 2.80 m
Span 9.00 m
Shape Box + pan
Manufacturer SPXS
Bus Type Starlink
Phase Status In Orbit
Owner/State SPXS/US

Large Constellations

Loading constellations...